Voltar ao catálogo

STARLINK-37990

AtivoComunicaçõesSSO
NORAD 69683·PAYLOAD·🇺🇸 United States

Lançado Jun 25, 2026 de Vandenberg Space Force Base

Loading…

Próximas Passagens (próximas 24 horas)

TLE

AtualizadoSource: CelesTrak SupGP

Época: Sep 15, 2026, 04:19 UTC

1 69683C 26145G   26258.18034722 -.00053338  00000+0 -16556-2 0  2586
2 69683  97.2851 104.8802 0002087  95.9982 325.2815 15.33468554    19

Acompanhe STARLINK-37990 em tempo real com AllMySat

Download on the App Store